Voltar ao catálogo

STARLINK-4395

AtivoComunicaçõesSSO
NORAD 53199·PAYLOAD·🇺🇸 United States

Lançado Jul 22, 2022 de Vandenberg Space Force Base

Loading…

Próximas Passagens (próximas 24 horas)

TLE

AtualizadoSource: CelesTrak SupGP

Época: Sep 14, 2026, 22:19 UTC

1 53199C 22084L   26257.93034722  .00004161  00000+0  12928-3 0  2578
2 53199  97.2844 313.6466 0001554  91.7284  91.8219 15.33412579    19

Acompanhe STARLINK-4395 em tempo real com AllMySat

Download on the App Store